owner,sensor,date,latitude,longitude,vertical_datum,wind_speed,wind_to_direction,wind_speed_of_gust,qcFlag 
DISL,ioos:station:DISL:MHPA:1,2009-03-01T00:00:00Z,30.6671,-87.9365,8.5,8.12,318.8,-9999.0,'1111122,1111122,1111122' 
DISL,ioos:station:DISL:MHPA:1,2009-03-01T00:30:00Z,30.6671,-87.9365,8.5,8.44,317.1,-9999.0,'1111122,1111122,1111122' 
DISL,ioos:station:DISL:MHPA:1,2009-03-01T01:00:00Z,30.6671,-87.9365,8.5,8.33,309.2,-9999.0,'1111122,1111122,1111122' 
DISL,ioos:station:DISL:MHPA:1,2009-03-01T01:30:00Z,30.6671,-87.9365,8.5,8.09,327.5,-9999.0,'1111122,1111122,1111122' 
DISL,ioos:station:DISL:MHPA:1,2009-03-01T02:00:00Z,30.6671,-87.9365,8.5,7.08,322.6,-9999.0,'1111122,1111122,1111122' 
DISL,ioos:station:DISL:MHPA:1,2009-03-01T02:30:00Z,30.6671,-87.9365,8.5,8.39,316.6,-9999.0,'1111122,1111122,1111122' 
DISL,ioos:station:DISL:MHPA:1,2009-03-01T03:00:00Z,30.6671,-87.9365,8.5,9.23,330.0,-9999.0,'1111122,1111122,1111122' 
DISL,ioos:station:DISL:MHPA:1,2009-03-01T03:30:00Z,30.6671,-87.9365,8.5,9.63,323.5,-9999.0,'1111122,1111122,1111122' 
DISL,ioos:station:DISL:MHPA:1,2009-03-01T04:00:00Z,30.6671,-87.9365,8.5,8.87,311.5,-9999.0,'1111122,1111122,1111122' 
DISL,ioos:station:DISL:MHPA:1,2009-03-01T04:30:00Z,30.6671,-87.9365,8.5,9.84,311.8,-9999.0,'1111122,1111122,1111122' 
DISL,ioos:station:DISL:MHPA:1,2009-03-01T05:00:00Z,30.6671,-87.9365,8.5,9.61,319.3,-9999.0,'1111122,1111122,1111122' 
DISL,ioos:station:DISL:MHPA:1,2009-03-01T05:30:00Z,30.6671,-87.9365,8.5,8.31,330.6,-9999.0,'1111122,1111122,1111122' 
DISL,ioos:station:DISL:MHPA:1,2009-03-01T06:00:00Z,30.6671,-87.9365,8.5,8.22,330.5,-9999.0,'1111122,1111122,1111122' 
DISL,ioos:station:DISL:MHPA:1,2009-03-01T06:30:00Z,30.6671,-87.9365,8.5,7.23,329.6,-9999.0,'1111122,1111122,1111122' 
DISL,ioos:station:DISL:MHPA:1,2009-03-01T07:00:00Z,30.6671,-87.9365,8.5,7.18,328.6,-9999.0,'1111122,1111122,1111122' 
DISL,ioos:station:DISL:MHPA:1,2009-03-01T07:30:00Z,30.6671,-87.9365,8.5,6.46,319.9,-9999.0,'1111122,1111122,1111122' 
DISL,ioos:station:DISL:MHPA:1,2009-03-01T08:00:00Z,30.6671,-87.9365,8.5,7.1,330.3,-9999.0,'1111122,1111122,1111122' 
DISL,ioos:station:DISL:MHPA:1,2009-03-01T08:30:00Z,30.6671,-87.9365,8.5,6.67,310.5,-9999.0,'1111122,1111122,1111122' 
DISL,ioos:station:DISL:MHPA:1,2009-03-01T09:00:00Z,30.6671,-87.9365,8.5,8.64,324.3,-9999.0,'1111122,1111122,1111122' 
DISL,ioos:station:DISL:MHPA:1,2009-03-01T09:30:00Z,30.6671,-87.9365,8.5,6.99,312.2,-9999.0,'1111122,1111122,1111122' 
DISL,ioos:station:DISL:MHPA:1,2009-03-01T10:00:00Z,30.6671,-87.9365,8.5,8.71,319.4,-9999.0,'1111122,1111122,1111122' 
DISL,ioos:station:DISL:MHPA:1,2009-03-01T10:30:00Z,30.6671,-87.9365,8.5,8.82,312.8,-9999.0,'1111122,1111122,1111122' 
DISL,ioos:station:DISL:MHPA:1,2009-03-01T11:00:00Z,30.6671,-87.9365,8.5,9.88,308.5,-9999.0,'1111122,1111122,1111122' 
DISL,ioos:station:DISL:MHPA:1,2009-03-01T11:30:00Z,30.6671,-87.9365,8.5,8.32,311.6,-9999.0,'1111122,1111122,1111122' 
DISL,ioos:station:DISL:MHPA:1,2009-03-01T12:00:00Z,30.6671,-87.9365,8.5,9.14,305.8,-9999.0,'1111122,1111122,1111122' 
DISL,ioos:station:DISL:MHPA:1,2009-03-01T12:30:00Z,30.6671,-87.9365,8.5,8.15,309.8,-9999.0,'1111122,1111122,1111122' 
DISL,ioos:station:DISL:MHPA:1,2009-03-01T13:00:00Z,30.6671,-87.9365,8.5,7.88,310.3,-9999.0,'1111122,1111122,1111122' 
DISL,ioos:station:DISL:MHPA:1,2009-03-01T13:30:00Z,30.6671,-87.9365,8.5,10.3,308.5,-9999.0,'1111122,1111122,1111122' 
DISL,ioos:station:DISL:MHPA:1,2009-03-01T14:00:00Z,30.6671,-87.9365,8.5,8.89,322.9,-9999.0,'1111122,1111122,1111122' 
DISL,ioos:station:DISL:MHPA:1,2009-03-01T14:30:00Z,30.6671,-87.9365,8.5,8.98,311.5,-9999.0,'1111122,1111122,1111122' 
DISL,ioos:station:DISL:MHPA:1,2009-03-01T15:00:00Z,30.6671,-87.9365,8.5,9.39,317.7,-9999.0,'1111122,1111122,1111122' 
DISL,ioos:station:DISL:MHPA:1,2009-03-01T15:30:00Z,30.6671,-87.9365,8.5,9.64,333.2,-9999.0,'1111122,1111122,1111122' 
DISL,ioos:station:DISL:MHPA:1,2009-03-01T16:00:00Z,30.6671,-87.9365,8.5,9.77,328.3,-9999.0,'1111122,1111122,1111122' 
DISL,ioos:station:DISL:MHPA:1,2009-03-01T16:30:00Z,30.6671,-87.9365,8.5,9.33,319.6,-9999.0,'1111122,1111122,1111122' 
DISL,ioos:station:DISL:MHPA:1,2009-03-01T17:00:00Z,30.6671,-87.9365,8.5,8.45,304.0,-9999.0,'1111122,1111122,1111122' 
DISL,ioos:station:DISL:MHPA:1,2009-03-01T17:30:00Z,30.6671,-87.9365,8.5,8.2,313.9,-9999.0,'1111122,1111122,1111122' 
DISL,ioos:station:DISL:MHPA:1,2009-03-01T18:00:00Z,30.6671,-87.9365,8.5,7.18,320.3,-9999.0,'1111122,1111122,1111122' 
DISL,ioos:station:DISL:MHPA:1,2009-03-01T18:30:00Z,30.6671,-87.9365,8.5,6.74,316.4,-9999.0,'1111122,1111122,1111122' 
DISL,ioos:station:DISL:MHPA:1,2009-03-01T19:00:00Z,30.6671,-87.9365,8.5,7.26,314.2,-9999.0,'1111122,1111122,1111122' 
DISL,ioos:station:DISL:MHPA:1,2009-03-01T19:30:00Z,30.6671,-87.9365,8.5,9.27,322.7,-9999.0,'1111122,1111122,1111122' 
DISL,ioos:station:DISL:MHPA:1,2009-03-01T20:00:00Z,30.6671,-87.9365,8.5,8.89,322.3,-9999.0,'1111122,1111122,1111122' 
DISL,ioos:station:DISL:MHPA:1,2009-03-01T20:30:00Z,30.6671,-87.9365,8.5,8.82,329.2,-9999.0,'1111122,1111122,1111122' 
DISL,ioos:station:DISL:MHPA:1,2009-03-01T21:00:00Z,30.6671,-87.9365,8.5,9.11,332.9,-9999.0,'1111122,1111122,1111122' 
DISL,ioos:station:DISL:MHPA:1,2009-03-01T21:30:00Z,30.6671,-87.9365,8.5,9.29,316.8,-9999.0,'1111122,1111122,1111122' 
DISL,ioos:station:DISL:MHPA:1,2009-03-01T22:00:00Z,30.6671,-87.9365,8.5,8.59,333.1,-9999.0,'1111122,1111122,1111122' 
DISL,ioos:station:DISL:MHPA:1,2009-03-01T22:30:00Z,30.6671,-87.9365,8.5,8.74,328.0,-9999.0,'1111122,1111122,1111122' 
DISL,ioos:station:DISL:MHPA:1,2009-03-01T23:00:00Z,30.6671,-87.9365,8.5,9.27,333.0,-9999.0,'1111122,1111122,1111122' 
DISL,ioos:station:DISL:MHPA:1,2009-03-01T23:30:00Z,30.6671,-87.9365,8.5,7.02,334.9,-9999.0,'1111122,1111122,1111122' 
DISL,ioos:station:DISL:MHPA:1,2009-03-02T00:00:00Z,30.6671,-87.9365,8.5,7.47,338.1,-9999.0,'1111122,1111122,1111122' 
DISL,ioos:station:DISL:MHPA:1,2009-03-02T00:30:00Z,30.6671,-87.9365,8.5,7.29,331.3,-9999.0,'1111122,1111122,1111122' 
DISL,ioos:station:DISL:MHPA:1,2009-03-02T01:00:00Z,30.6671,-87.9365,8.5,4.73,323.2,-9999.0,'1111122,1111122,1111122' 
DISL,ioos:station:DISL:MHPA:1,2009-03-02T01:30:00Z,30.6671,-87.9365,8.5,7.38,330.0,-9999.0,'1111122,1111122,1111122' 
DISL,ioos:station:DISL:MHPA:1,2009-03-02T02:00:00Z,30.6671,-87.9365,8.5,7.09,327.3,-9999.0,'1111122,1111122,1111122' 
DISL,ioos:station:DISL:MHPA:1,2009-03-02T02:30:00Z,30.6671,-87.9365,8.5,6.96,329.9,-9999.0,'1111122,1111122,1111122' 
DISL,ioos:station:DISL:MHPA:1,2009-03-02T03:00:00Z,30.6671,-87.9365,8.5,5.95,337.6,-9999.0,'1111122,1111122,1111122' 
DISL,ioos:station:DISL:MHPA:1,2009-03-02T03:30:00Z,30.6671,-87.9365,8.5,6.94,332.3,-9999.0,'1111122,1111122,1111122' 
DISL,ioos:station:DISL:MHPA:1,2009-03-02T04:00:00Z,30.6671,-87.9365,8.5,7.63,337.1,-9999.0,'1111122,1111122,1111122' 
DISL,ioos:station:DISL:MHPA:1,2009-03-02T04:30:00Z,30.6671,-87.9365,8.5,7.31,338.3,-9999.0,'1111122,1111122,1111122' 
DISL,ioos:station:DISL:MHPA:1,2009-03-02T05:00:00Z,30.6671,-87.9365,8.5,6.44,344.9,-9999.0,'1111122,1111122,1111122' 
DISL,ioos:station:DISL:MHPA:1,2009-03-02T05:30:00Z,30.6671,-87.9365,8.5,7.22,330.3,-9999.0,'1111122,1111122,1111122' 
DISL,ioos:station:DISL:MHPA:1,2009-03-02T06:00:00Z,30.6671,-87.9365,8.5,5.46,337.2,-9999.0,'1111122,1111122,1111122' 
DISL,ioos:station:DISL:MHPA:1,2009-03-02T06:30:00Z,30.6671,-87.9365,8.5,5.94,338.8,-9999.0,'1111122,1111122,1111122' 
DISL,ioos:station:DISL:MHPA:1,2009-03-02T07:00:00Z,30.6671,-87.9365,8.5,6.56,344.9,-9999.0,'1111122,1111122,1111122' 
DISL,ioos:station:DISL:MHPA:1,2009-03-02T07:30:00Z,30.6671,-87.9365,8.5,6.23,341.2,-9999.0,'1111122,1111122,1111122' 
DISL,ioos:station:DISL:MHPA:1,2009-03-02T08:00:00Z,30.6671,-87.9365,8.5,5.12,347.4,-9999.0,'1111122,1111122,1111122' 
DISL,ioos:station:DISL:MHPA:1,2009-03-02T08:30:00Z,30.6671,-87.9365,8.5,5.12,340.6,-9999.0,'1111122,1111122,1111122' 
DISL,ioos:station:DISL:MHPA:1,2009-03-02T09:00:00Z,30.6671,-87.9365,8.5,5.92,338.9,-9999.0,'1111122,1111122,1111122' 
DISL,ioos:station:DISL:MHPA:1,2009-03-02T09:30:00Z,30.6671,-87.9365,8.5,4.61,343.7,-9999.0,'1111122,1111122,1111122' 
DISL,ioos:station:DISL:MHPA:1,2009-03-02T10:00:00Z,30.6671,-87.9365,8.5,5.3,347.7,-9999.0,'1111122,1111122,1111122' 
DISL,ioos:station:DISL:MHPA:1,2009-03-02T10:30:00Z,30.6671,-87.9365,8.5,4.66,346.4,-9999.0,'1111122,1111122,1111122' 
DISL,ioos:station:DISL:MHPA:1,2009-03-02T11:00:00Z,30.6671,-87.9365,8.5,5.29,343.1,-9999.0,'1111122,1111122,1111122' 
DISL,ioos:station:DISL:MHPA:1,2009-03-02T11:30:00Z,30.6671,-87.9365,8.5,5.61,347.3,-9999.0,'1111122,1111122,1111122' 
DISL,ioos:station:DISL:MHPA:1,2009-03-02T12:00:00Z,30.6671,-87.9365,8.5,5.02,353.1,-9999.0,'1111122,1111122,1111122' 
DISL,ioos:station:DISL:MHPA:1,2009-03-02T12:30:00Z,30.6671,-87.9365,8.5,5.21,348.1,-9999.0,'1111122,1111122,1111122' 
DISL,ioos:station:DISL:MHPA:1,2009-03-02T13:00:00Z,30.6671,-87.9365,8.5,5.67,345.1,-9999.0,'1111122,1111122,1111122' 
DISL,ioos:station:DISL:MHPA:1,2009-03-02T13:30:00Z,30.6671,-87.9365,8.5,5.37,349.2,-9999.0,'1111122,1111122,1111122' 
DISL,ioos:station:DISL:MHPA:1,2009-03-02T14:00:00Z,30.6671,-87.9365,8.5,6.24,358.7,-9999.0,'1111122,1111122,1111122' 
DISL,ioos:station:DISL:MHPA:1,2009-03-02T14:30:00Z,30.6671,-87.9365,8.5,5.72,353.6,-9999.0,'1111122,1111122,1111122' 
DISL,ioos:station:DISL:MHPA:1,2009-03-02T15:00:00Z,30.6671,-87.9365,8.5,5.07,346.6,-9999.0,'1111122,1111122,1111122' 
DISL,ioos:station:DISL:MHPA:1,2009-03-02T15:30:00Z,30.6671,-87.9365,8.5,4.32,345.6,-9999.0,'1111122,1111122,1111122' 
DISL,ioos:station:DISL:MHPA:1,2009-03-02T16:00:00Z,30.6671,-87.9365,8.5,4.28,350.9,-9999.0,'1111122,1111122,1111122' 
DISL,ioos:station:DISL:MHPA:1,2009-03-02T16:30:00Z,30.6671,-87.9365,8.5,5.49,344.1,-9999.0,'1111122,1111122,1111122' 
DISL,ioos:station:DISL:MHPA:1,2009-03-02T17:00:00Z,30.6671,-87.9365,8.5,4.7,344.7,-9999.0,'1111122,1111122,1111122' 
DISL,ioos:station:DISL:MHPA:1,2009-03-02T17:30:00Z,30.6671,-87.9365,8.5,5.49,349.0,-9999.0,'1111122,1111122,1111122' 
DISL,ioos:station:DISL:MHPA:1,2009-03-02T18:00:00Z,30.6671,-87.9365,8.5,6.01,347.3,-9999.0,'1111122,1111122,1111122' 
DISL,ioos:station:DISL:MHPA:1,2009-03-02T18:30:00Z,30.6671,-87.9365,8.5,5.22,357.0,-9999.0,'1111122,1111122,1111122' 
DISL,ioos:station:DISL:MHPA:1,2009-03-02T19:00:00Z,30.6671,-87.9365,8.5,4.86,356.7,-9999.0,'1111122,1111122,1111122' 
DISL,ioos:station:DISL:MHPA:1,2009-03-02T19:30:00Z,30.6671,-87.9365,8.5,5.59,352.8,-9999.0,'1111122,1111122,1111122' 
DISL,ioos:station:DISL:MHPA:1,2009-03-02T20:00:00Z,30.6671,-87.9365,8.5,6.21,328.4,-9999.0,'1111122,1111122,1111122' 
DISL,ioos:station:DISL:MHPA:1,2009-03-02T20:30:00Z,30.6671,-87.9365,8.5,4.79,339.8,-9999.0,'1111122,1111122,1111122' 
DISL,ioos:station:DISL:MHPA:1,2009-03-02T21:00:00Z,30.6671,-87.9365,8.5,5.56,342.5,-9999.0,'1111122,1111122,1111122' 
DISL,ioos:station:DISL:MHPA:1,2009-03-02T21:30:00Z,30.6671,-87.9365,8.5,6.0,347.7,-9999.0,'1111122,1111122,1111122' 
DISL,ioos:station:DISL:MHPA:1,2009-03-02T22:00:00Z,30.6671,-87.9365,8.5,4.98,346.3,-9999.0,'1111122,1111122,1111122' 
DISL,ioos:station:DISL:MHPA:1,2009-03-02T22:30:00Z,30.6671,-87.9365,8.5,5.4,355.1,-9999.0,'1111122,1111122,1111122' 
DISL,ioos:station:DISL:MHPA:1,2009-03-02T23:00:00Z,30.6671,-87.9365,8.5,5.03,345.4,-9999.0,'1111122,1111122,1111122' 
DISL,ioos:station:DISL:MHPA:1,2009-03-02T23:30:00Z,30.6671,-87.9365,8.5,4.31,4.283,-9999.0,'1111122,1111122,1111122' 
DISL,ioos:station:DISL:MHPA:1,2009-03-03T00:00:00Z,30.6671,-87.9365,8.5,3.56,8.7,-9999.0,'1111122,1111122,1111122' 
DISL,ioos:station:DISL:MHPA:1,2009-03-03T00:30:00Z,30.6671,-87.9365,8.5,1.85,16.05,-9999.0,'1111122,1111122,1111122' 
DISL,ioos:station:DISL:MHPA:1,2009-03-03T01:00:00Z,30.6671,-87.9365,8.5,1.81,13.11,-9999.0,'1111122,1111122,1111122' 
DISL,ioos:station:DISL:MHPA:1,2009-03-03T01:30:00Z,30.6671,-87.9365,8.5,1.55,8.59,-9999.0,'1111122,1111122,1111122' 
DISL,ioos:station:DISL:MHPA:1,2009-03-03T02:00:00Z,30.6671,-87.9365,8.5,1.26,18.42,-9999.0,'1111122,1111122,1111122' 
DISL,ioos:station:DISL:MHPA:1,2009-03-03T02:30:00Z,30.6671,-87.9365,8.5,1.82,16.67,-9999.0,'1111122,1111122,1111122' 
DISL,ioos:station:DISL:MHPA:1,2009-03-03T03:00:00Z,30.6671,-87.9365,8.5,2.31,17.74,-9999.0,'1111122,1111122,1111122' 
DISL,ioos:station:DISL:MHPA:1,2009-03-03T03:30:00Z,30.6671,-87.9365,8.5,1.93,30.5,-9999.0,'1111122,1111122,1111122' 
DISL,ioos:station:DISL:MHPA:1,2009-03-03T04:00:00Z,30.6671,-87.9365,8.5,2.22,10.24,-9999.0,'1111122,1111122,1111122' 
DISL,ioos:station:DISL:MHPA:1,2009-03-03T04:30:00Z,30.6671,-87.9365,8.5,2.02,15.31,-9999.0,'1111122,1111122,1111122' 
DISL,ioos:station:DISL:MHPA:1,2009-03-03T05:00:00Z,30.6671,-87.9365,8.5,2.2,15.5,-9999.0,'1111122,1111122,1111122' 
DISL,ioos:station:DISL:MHPA:1,2009-03-03T05:30:00Z,30.6671,-87.9365,8.5,2.25,18.47,-9999.0,'1111122,1111122,1111122' 
DISL,ioos:station:DISL:MHPA:1,2009-03-03T06:00:00Z,30.6671,-87.9365,8.5,2.02,30.8,-9999.0,'1111122,1111122,1111122' 
DISL,ioos:station:DISL:MHPA:1,2009-03-03T06:30:00Z,30.6671,-87.9365,8.5,2.04,33.43,-9999.0,'1111122,1111122,1111122' 
DISL,ioos:station:DISL:MHPA:1,2009-03-03T07:00:00Z,30.6671,-87.9365,8.5,2.33,19.48,-9999.0,'1111122,1111122,1111122' 
DISL,ioos:station:DISL:MHPA:1,2009-03-03T07:30:00Z,30.6671,-87.9365,8.5,1.53,17.76,-9999.0,'1111122,1111122,1111122' 
DISL,ioos:station:DISL:MHPA:1,2009-03-03T08:00:00Z,30.6671,-87.9365,8.5,2.5,10.18,-9999.0,'1111122,1111122,1111122' 
DISL,ioos:station:DISL:MHPA:1,2009-03-03T08:30:00Z,30.6671,-87.9365,8.5,3.18,4.623,-9999.0,'1111122,1111122,1111122' 
DISL,ioos:station:DISL:MHPA:1,2009-03-03T09:00:00Z,30.6671,-87.9365,8.5,3.16,3.837,-9999.0,'1111122,1111122,1111122' 
DISL,ioos:station:DISL:MHPA:1,2009-03-03T09:30:00Z,30.6671,-87.9365,8.5,2.69,7.65,-9999.0,'1111122,1111122,1111122' 
DISL,ioos:station:DISL:MHPA:1,2009-03-03T10:00:00Z,30.6671,-87.9365,8.5,2.65,357.3,-9999.0,'1111122,1111122,1111122' 
DISL,ioos:station:DISL:MHPA:1,2009-03-03T10:30:00Z,30.6671,-87.9365,8.5,2.81,4.317,-9999.0,'1111122,1111122,1111122' 
DISL,ioos:station:DISL:MHPA:1,2009-03-03T11:00:00Z,30.6671,-87.9365,8.5,2.67,2.8,-9999.0,'1111122,1111122,1111122' 
DISL,ioos:station:DISL:MHPA:1,2009-03-03T11:30:00Z,30.6671,-87.9365,8.5,2.17,1.659,-9999.0,'1111122,1111122,1111122' 
DISL,ioos:station:DISL:MHPA:1,2009-03-03T12:00:00Z,30.6671,-87.9365,8.5,3.15,1.205,-9999.0,'1111122,1111122,1111122' 
DISL,ioos:station:DISL:MHPA:1,2009-03-03T12:30:00Z,30.6671,-87.9365,8.5,3.49,355.9,-9999.0,'1111122,1111122,1111122' 
DISL,ioos:station:DISL:MHPA:1,2009-03-03T13:00:00Z,30.6671,-87.9365,8.5,3.36,358.0,-9999.0,'1111122,1111122,1111122' 
DISL,ioos:station:DISL:MHPA:1,2009-03-03T13:30:00Z,30.6671,-87.9365,8.5,3.1,4.128,-9999.0,'1111122,1111122,1111122' 
DISL,ioos:station:DISL:MHPA:1,2009-03-03T14:00:00Z,30.6671,-87.9365,8.5,3.22,27.4,-9999.0,'1111122,1111122,1111122' 
DISL,ioos:station:DISL:MHPA:1,2009-03-03T14:30:00Z,30.6671,-87.9365,8.5,3.75,32.56,-9999.0,'1111122,1111122,1111122' 
DISL,ioos:station:DISL:MHPA:1,2009-03-03T15:00:00Z,30.6671,-87.9365,8.5,3.37,27.54,-9999.0,'1111122,1111122,1111122' 
DISL,ioos:station:DISL:MHPA:1,2009-03-03T15:30:00Z,30.6671,-87.9365,8.5,2.66,50.89,-9999.0,'1111122,1111122,1111122' 
DISL,ioos:station:DISL:MHPA:1,2009-03-03T16:00:00Z,30.6671,-87.9365,8.5,1.78,28.35,-9999.0,'1111122,1111122,1111122' 
DISL,ioos:station:DISL:MHPA:1,2009-03-03T16:30:00Z,30.6671,-87.9365,8.5,2.1,41.71,-9999.0,'1111122,1111122,1111122' 
DISL,ioos:station:DISL:MHPA:1,2009-03-03T17:00:00Z,30.6671,-87.9365,8.5,2.53,336.8,-9999.0,'1111122,1111122,1111122' 
DISL,ioos:station:DISL:MHPA:1,2009-03-03T17:30:00Z,30.6671,-87.9365,8.5,2.42,319.9,-9999.0,'1111122,1111122,1111122' 
DISL,ioos:station:DISL:MHPA:1,2009-03-03T18:00:00Z,30.6671,-87.9365,8.5,2.29,303.1,-9999.0,'1111122,1111122,1111122' 
DISL,ioos:station:DISL:MHPA:1,2009-03-03T18:30:00Z,30.6671,-87.9365,8.5,3.32,316.6,-9999.0,'1111122,1111122,1111122' 
DISL,ioos:station:DISL:MHPA:1,2009-03-03T19:00:00Z,30.6671,-87.9365,8.5,3.0,332.3,-9999.0,'1111122,1111122,1111122' 
DISL,ioos:station:DISL:MHPA:1,2009-03-03T19:30:00Z,30.6671,-87.9365,8.5,3.45,339.6,-9999.0,'1111122,1111122,1111122' 
DISL,ioos:station:DISL:MHPA:1,2009-03-03T20:00:00Z,30.6671,-87.9365,8.5,3.76,342.4,-9999.0,'1111122,1111122,1111122' 
DISL,ioos:station:DISL:MHPA:1,2009-03-03T20:30:00Z,30.6671,-87.9365,8.5,3.18,334.7,-9999.0,'1111122,1111122,1111122' 
DISL,ioos:station:DISL:MHPA:1,2009-03-03T21:00:00Z,30.6671,-87.9365,8.5,3.55,331.7,-9999.0,'1111122,1111122,1111122' 
DISL,ioos:station:DISL:MHPA:1,2009-03-03T21:30:00Z,30.6671,-87.9365,8.5,2.94,337.6,-9999.0,'1111122,1111122,1111122' 
DISL,ioos:station:DISL:MHPA:1,2009-03-03T22:00:00Z,30.6671,-87.9365,8.5,2.82,343.6,-9999.0,'1111122,1111122,1111122' 
DISL,ioos:station:DISL:MHPA:1,2009-03-03T22:30:00Z,30.6671,-87.9365,8.5,3.29,345.5,-9999.0,'1111122,1111122,1111122' 
DISL,ioos:station:DISL:MHPA:1,2009-03-03T23:00:00Z,30.6671,-87.9365,8.5,2.07,354.1,-9999.0,'1111122,1111122,1111122' 
DISL,ioos:station:DISL:MHPA:1,2009-03-03T23:30:00Z,30.6671,-87.9365,8.5,2.31,5.242,-9999.0,'1111122,1111122,1111122' 
DISL,ioos:station:DISL:MHPA:1,2009-03-04T00:00:00Z,30.6671,-87.9365,8.5,1.43,28.93,-9999.0,'1111122,1111122,1111122' 
DISL,ioos:station:DISL:MHPA:1,2009-03-04T00:30:00Z,30.6671,-87.9365,8.5,0.94,31.97,-9999.0,'1111122,1111122,1111122' 
DISL,ioos:station:DISL:MHPA:1,2009-03-04T01:00:00Z,30.6671,-87.9365,8.5,1.06,34.91,-9999.0,'1111122,1111122,1111122' 
DISL,ioos:station:DISL:MHPA:1,2009-03-04T01:30:00Z,30.6671,-87.9365,8.5,0.41,50.03,-9999.0,'1111122,1111122,1111122' 
DISL,ioos:station:DISL:MHPA:1,2009-03-04T02:00:00Z,30.6671,-87.9365,8.5,1.68,120.1,-9999.0,'1111122,1111122,1111122' 
DISL,ioos:station:DISL:MHPA:1,2009-03-04T02:30:00Z,30.6671,-87.9365,8.5,0.78,113.3,-9999.0,'1111122,1111122,1111122' 
DISL,ioos:station:DISL:MHPA:1,2009-03-04T03:00:00Z,30.6671,-87.9365,8.5,0.86,89.5,-9999.0,'1111122,1111122,1111122' 
DISL,ioos:station:DISL:MHPA:1,2009-03-04T03:30:00Z,30.6671,-87.9365,8.5,1.45,125.0,-9999.0,'1111122,1111122,1111122' 
DISL,ioos:station:DISL:MHPA:1,2009-03-04T04:00:00Z,30.6671,-87.9365,8.5,0.0,0.0,-9999.0,'1114422,1114422,1111122' 
DISL,ioos:station:DISL:MHPA:1,2009-03-04T04:30:00Z,30.6671,-87.9365,8.5,0.09,3.217,-9999.0,'1111122,1111122,1111122' 
DISL,ioos:station:DISL:MHPA:1,2009-03-04T05:00:00Z,30.6671,-87.9365,8.5,0.43,47.47,-9999.0,'1111122,1111122,1111122' 
DISL,ioos:station:DISL:MHPA:1,2009-03-04T05:30:00Z,30.6671,-87.9365,8.5,0.56,346.6,-9999.0,'1111122,1111122,1111122' 
DISL,ioos:station:DISL:MHPA:1,2009-03-04T06:00:00Z,30.6671,-87.9365,8.5,1.33,4.28,-9999.0,'1111122,1111122,1111122' 
DISL,ioos:station:DISL:MHPA:1,2009-03-04T06:30:00Z,30.6671,-87.9365,8.5,0.97,28.46,-9999.0,'1111122,1111122,1111122' 
DISL,ioos:station:DISL:MHPA:1,2009-03-04T07:00:00Z,30.6671,-87.9365,8.5,1.46,26.43,-9999.0,'1111122,1111122,1111122' 
DISL,ioos:station:DISL:MHPA:1,2009-03-04T07:30:00Z,30.6671,-87.9365,8.5,1.11,56.57,-9999.0,'1111122,1111122,1111122' 
DISL,ioos:station:DISL:MHPA:1,2009-03-04T08:00:00Z,30.6671,-87.9365,8.5,0.78,22.73,-9999.0,'1111122,1111122,1111122' 
DISL,ioos:station:DISL:MHPA:1,2009-03-04T08:30:00Z,30.6671,-87.9365,8.5,1.54,43.75,-9999.0,'1111122,1111122,1111122' 
DISL,ioos:station:DISL:MHPA:1,2009-03-04T09:00:00Z,30.6671,-87.9365,8.5,0.92,67.9,-9999.0,'1111122,1111122,1111122' 
DISL,ioos:station:DISL:MHPA:1,2009-03-04T09:30:00Z,30.6671,-87.9365,8.5,2.04,87.3,-9999.0,'1111122,1111122,1111122' 
DISL,ioos:station:DISL:MHPA:1,2009-03-04T10:00:00Z,30.6671,-87.9365,8.5,0.8,63.72,-9999.0,'1111122,1111122,1111122' 
DISL,ioos:station:DISL:MHPA:1,2009-03-04T10:30:00Z,30.6671,-87.9365,8.5,1.18,7.45,-9999.0,'1111122,1111122,1111122' 
DISL,ioos:station:DISL:MHPA:1,2009-03-04T11:00:00Z,30.6671,-87.9365,8.5,1.3,40.37,-9999.0,'1111122,1111122,1111122' 
DISL,ioos:station:DISL:MHPA:1,2009-03-04T11:30:00Z,30.6671,-87.9365,8.5,1.51,46.68,-9999.0,'1111122,1111122,1111122' 
DISL,ioos:station:DISL:MHPA:1,2009-03-04T12:00:00Z,30.6671,-87.9365,8.5,1.71,67.83,-9999.0,'1111122,1111122,1111122' 
DISL,ioos:station:DISL:MHPA:1,2009-03-04T12:30:00Z,30.6671,-87.9365,8.5,2.13,76.2,-9999.0,'1111122,1111122,1111122' 
DISL,ioos:station:DISL:MHPA:1,2009-03-04T13:00:00Z,30.6671,-87.9365,8.5,2.84,93.9,-9999.0,'1111122,1111122,1111122' 
DISL,ioos:station:DISL:MHPA:1,2009-03-04T13:30:00Z,30.6671,-87.9365,8.5,3.56,93.0,-9999.0,'1111122,1111122,1111122' 
DISL,ioos:station:DISL:MHPA:1,2009-03-04T14:00:00Z,30.6671,-87.9365,8.5,4.03,94.4,-9999.0,'1111122,1111122,1111122' 
DISL,ioos:station:DISL:MHPA:1,2009-03-04T14:30:00Z,30.6671,-87.9365,8.5,4.25,103.4,-9999.0,'1111122,1111122,1111122' 
DISL,ioos:station:DISL:MHPA:1,2009-03-04T15:00:00Z,30.6671,-87.9365,8.5,3.83,97.1,-9999.0,'1111122,1111122,1111122' 
DISL,ioos:station:DISL:MHPA:1,2009-03-04T15:30:00Z,30.6671,-87.9365,8.5,3.62,109.3,-9999.0,'1111122,1111122,1111122' 
DISL,ioos:station:DISL:MHPA:1,2009-03-04T16:00:00Z,30.6671,-87.9365,8.5,3.64,108.3,-9999.0,'1111122,1111122,1111122' 
DISL,ioos:station:DISL:MHPA:1,2009-03-04T16:30:00Z,30.6671,-87.9365,8.5,3.37,131.9,-9999.0,'1111122,1111122,1111122' 
DISL,ioos:station:DISL:MHPA:1,2009-03-04T17:00:00Z,30.6671,-87.9365,8.5,3.65,150.0,-9999.0,'1111122,1111122,1111122' 
DISL,ioos:station:DISL:MHPA:1,2009-03-04T17:30:00Z,30.6671,-87.9365,8.5,2.68,201.1,-9999.0,'1111122,1111122,1111122' 
DISL,ioos:station:DISL:MHPA:1,2009-03-04T18:00:00Z,30.6671,-87.9365,8.5,2.84,228.9,-9999.0,'1111122,1111122,1111122' 
DISL,ioos:station:DISL:MHPA:1,2009-03-04T18:30:00Z,30.6671,-87.9365,8.5,3.99,236.1,-9999.0,'1111122,1111122,1111122' 
DISL,ioos:station:DISL:MHPA:1,2009-03-04T19:00:00Z,30.6671,-87.9365,8.5,3.07,225.2,-9999.0,'1111122,1111122,1111122' 
DISL,ioos:station:DISL:MHPA:1,2009-03-04T19:30:00Z,30.6671,-87.9365,8.5,4.18,201.1,-9999.0,'1111122,1111122,1111122' 
DISL,ioos:station:DISL:MHPA:1,2009-03-04T20:00:00Z,30.6671,-87.9365,8.5,4.96,196.8,-9999.0,'1111122,1111122,1111122' 
DISL,ioos:station:DISL:MHPA:1,2009-03-04T20:30:00Z,30.6671,-87.9365,8.5,4.97,193.9,-9999.0,'1111122,1111122,1111122' 
DISL,ioos:station:DISL:MHPA:1,2009-03-04T21:00:00Z,30.6671,-87.9365,8.5,5.65,198.1,-9999.0,'1111122,1111122,1111122' 
DISL,ioos:station:DISL:MHPA:1,2009-03-04T21:30:00Z,30.6671,-87.9365,8.5,5.59,200.8,-9999.0,'1111122,1111122,1111122' 
DISL,ioos:station:DISL:MHPA:1,2009-03-04T22:00:00Z,30.6671,-87.9365,8.5,6.07,195.6,-9999.0,'1111122,1111122,1111122' 
DISL,ioos:station:DISL:MHPA:1,2009-03-04T22:30:00Z,30.6671,-87.9365,8.5,5.98,190.3,-9999.0,'1111122,1111122,1111122' 
DISL,ioos:station:DISL:MHPA:1,2009-03-04T23:00:00Z,30.6671,-87.9365,8.5,6.05,191.6,-9999.0,'1111122,1111122,1111122' 
DISL,ioos:station:DISL:MHPA:1,2009-03-04T23:30:00Z,30.6671,-87.9365,8.5,6.49,188.3,-9999.0,'1111122,1111122,1111122' 
DISL,ioos:station:DISL:MHPA:1,2009-03-05T00:00:00Z,30.6671,-87.9365,8.5,5.6,179.7,-9999.0,'1111122,1111122,1111122' 
DISL,ioos:station:DISL:MHPA:1,2009-03-05T00:30:00Z,30.6671,-87.9365,8.5,4.16,149.3,-9999.0,'1111122,1111122,1111122' 
DISL,ioos:station:DISL:MHPA:1,2009-03-05T01:00:00Z,30.6671,-87.9365,8.5,3.61,126.3,-9999.0,'1111122,1111122,1111122' 
DISL,ioos:station:DISL:MHPA:1,2009-03-05T01:30:00Z,30.6671,-87.9365,8.5,2.75,127.4,-9999.0,'1111122,1111122,1111122' 
DISL,ioos:station:DISL:MHPA:1,2009-03-05T02:00:00Z,30.6671,-87.9365,8.5,2.5,123.3,-9999.0,'1111122,1111122,1111122' 
DISL,ioos:station:DISL:MHPA:1,2009-03-05T02:30:00Z,30.6671,-87.9365,8.5,2.82,126.2,-9999.0,'1111122,1111122,1111122' 
DISL,ioos:station:DISL:MHPA:1,2009-03-05T03:00:00Z,30.6671,-87.9365,8.5,2.96,124.2,-9999.0,'1111122,1111122,1111122' 
DISL,ioos:station:DISL:MHPA:1,2009-03-05T03:30:00Z,30.6671,-87.9365,8.5,3.02,116.2,-9999.0,'1111122,1111122,1111122' 
DISL,ioos:station:DISL:MHPA:1,2009-03-05T04:00:00Z,30.6671,-87.9365,8.5,3.03,115.9,-9999.0,'1111122,1111122,1111122' 
DISL,ioos:station:DISL:MHPA:1,2009-03-05T04:30:00Z,30.6671,-87.9365,8.5,2.31,126.6,-9999.0,'1111122,1111122,1111122' 